ARIANE 40 R/B

Last updated on Sun Aug 31 2025 00:02:14 GMT+0000 (Coordinated Universal Time)

1 22830U 93061H 25242.14363545 .00000284 00000+0 12039-3 0 9991 2 22830 98.5209 309.5085 0011706 128.2657 231.9582 14.32698792666678
UTC large
Height (km)
Speed (km/s)
/
Latitude / Longitude
Inclination (degrees)
Orbital Period (minutes)
Azimuth
Elevation
Range (km)
Doppler Factor

Next 0 passes for location: London (51.5072 / 0.1276)

Sorry there are no passes over London.